Regional Weather Roundup
Issued by NWS

Home | Current Version | Previous Version | Text Only | Print | Product List | Glossary On
Versions: 1 2 3 4 5 6 7 8 9 10 11 12 13 14 15 16 17 18 19 20 21 22 23 24 25 26 27 28 29 30 31 32 33 34 35 36 37 38 39 40 41 42 43 44 45 46 47 48 49 50
733
ASUS44 KJAN 231920
RWRMS

MISSISSIPPI HOURLY WEATHER ROUNDUP
NATIONAL WEATHER SERVICE JACKSON MS
200 PM CDT SAT JUL 23 2016

NOTE: "FAIR: INDICATES FEW OR NO CLOUDS BELOW 12,000 FEET WITH NO
SIGNIFICANT WEATHER AND/OR OBSTRUCTIONS TO VISIBILITY.

MSZ001>002-007>008-010>013-018>021-025>028-034>036-232000-
NORTHWEST MISSISSIPPI

CITY           SKY/WX    TMP DP  RH WIND       PRES   REMARKS
CLEVELAND      FAIR      82  78  88 NE14      30.00R THUNDER HX  91
GREENWOOD      MOSUNNY   89  72  56 NE12      29.99F HX  96
GREENVILLE     CLOUDY    94  73  50 CALM      29.95F HX 103
OXFORD         FAIR      73  73 100 S6        30.01F
WINONA         HVY RAIN  75  74  95 NE3       30.01F
$$

MSZ003>006-009-014>017-022>024-029>033-037>039-232000-
NORTHEAST MISSISSIPPI

CITY           SKY/WX    TMP DP  RH WIND       PRES   REMARKS
ABERDEEN       DRIZZLE   81  63  54 W3        30.01F
COLUMBUS AFB   LGT RAIN  81  77  89 NW5       29.98F
TUPELO         LGT RAIN  76  73  91 SW5       29.99F
$$

MSZ040-058-232000-
CENTRAL MISSISSIPPI

CITY           SKY/WX    TMP DP  RH WIND       PRES   REMARKS
JACKSON INTL   PTSUNNY   94  73  50 VRB3      29.98F HX 103
JACKSON HAWKNS SUNNY     93  75  55 MISG      29.98F HX 104
MADISON        FAIR      91  73  55 CALM      29.97F HX 100
MERIDIAN KEY   MOSUNNY   96  74  48 S10       29.97F HX 107
MERIDIAN NAS   MOSUNNY   96  71  44 E7        29.98F HX 103
VICKSBURG VKS  CLEAR     93  75  55 VRB5      29.97F HX 104
$$

MSZ059>079-232000-
SOUTH MISSISSIPPI

CITY           SKY/WX    TMP DP  RH WIND       PRES   REMARKS
BROOKHAVEN     MOCLDY   N/A N/A N/A CALM      30.01F
COLUMBIA       FAIR      91  73  55 CALM      30.03F HX 100
HATTIESBURG    PTSUNNY   90  75  61 S3        30.00F HX 100
MCCOMB         MOSUNNY   89  75  63 CALM      30.00F HX  99
NATCHEZ        SUNNY     91  77  62 N3        29.98F HX 105
PINE BELT      MOSUNNY   90  73  58 CALM      30.01F HX  98
$$

MSZ080>082-232000-
COASTAL MISSISSIPPI

CITY           SKY/WX    TMP DP  RH WIND       PRES   REMARKS
BAY ST LOUIS   PTSUNNY   88  72  58 S7        29.99F HX  94
BILOXI         MOSUNNY   89  75  62 S7        30.00S HX  99
PASCAGOULA     PTSUNNY   91  76  61 VRB3      30.00F HX 103
GULFPORT       MOSUNNY   90  74  59 S9        29.99F HX  99
$$

LAZ007>009-015>016-023>026-232000-
NORTHEAST LOUISIANA

CITY           SKY/WX    TMP DP  RH WIND       PRES   REMARKS
BASTROP        FAIR      95  77  55 SE3       29.97F HX 110
TALLULAH/VBURG MOSUNNY   94  77  57 VRB3      29.97F HX 108
VIDALIA        FAIR      91  75  59 CALM      30.00F HX 102
$$




USA.gov is the U.S. government's official web portal to all federal, state and local government web resources and services.